Preview of NWS' New Version of Forecast
This preview is not operational and should not be used for support decisions.

Regional Weather Roundup (RWR)

Issued by National Weather Service (NWS)

                            
000
ASUS45 KREV 241610
RWRNV 
NEVADA REGIONAL WEATHER ROUNDUP
NATIONAL WEATHER SERVICE RENO NV
900 AM PDT WED APR 24 2019

NOTE: "FAIR" INDICATES FEW OR NO CLOUDS BELOW 12,000 FEET WITH NO
SIGNIFICANT WEATHER AND/OR OBSTRUCTIONS TO VISIBILITY.

NVZ001-003-004-241700-
WESTERN NEVADA
  
CITY           SKY/WX    TMP DP  RH WIND       PRES   REMARKS
RENO           MOSUNNY   61  38  42 CALM      30.16S                  
CARSON CITY    FAIR      57  36  44 CALM      30.16F                  
MINDEN         FAIR      54  37  54 CALM      30.19S                  
SLIDE MTN        N/A     46  36  66 SE6         N/A                   
PYRAMID LAKE     N/A     61 N/A N/A N3          N/A                   
FALLON         MOSUNNY   65  40  39 S3        30.12S                  
LOVELOCK       SUNNY     61  42  49 CALM      30.11F                  
HAWTHORNE        N/A    N/A N/A N/A MISG        N/A                   
$$

NVZ002-CAZ072-073-241700-
NORTHERN AND CENTRAL SIERRA
  
CITY           SKY/WX    TMP DP  RH WIND       PRES   REMARKS
S. LAKE TAHOE  SUNNY     50  37  61 CALM      30.23F                  
TRUCKEE        SUNNY     46  37  71 CALM      30.23F                  
SQUAW VLY 8000   N/A     37  34  87 CALM        N/A                   
BLUE CANYON    SUNNY     68  40  35 NW5       30.18S                  
MAMMOTH LAKES  FAIR      55  32  41 SE5       30.27F                  
BRIDGEPORT     FAIR      58  30  34 CALM      30.23F                  
$$

NVZ030-031-036-241700-
NORTHERN NEVADA
  
CITY           SKY/WX    TMP DP  RH WIND       PRES   REMARKS
ELKO           MOSUNNY   55  42  61 VRB3      30.15F                  
WINNEMUCCA     SUNNY     62  42  47 CALM      30.13S                  
WENDOVER       SUNNY     61  46  57 E7        30.11S                  
$$

NVZ035-037-241700-
CENTRAL NEVADA
  
CITY           SKY/WX    TMP DP  RH WIND       PRES   REMARKS
ELY            SUNNY     54  32  43 S6        30.20F                  
EUREKA           N/A     57  41  55 CALM      30.19S                  
$$

NVZ013-014-241700-
SOUTH CENTRAL NEVADA
  
CITY           SKY/WX    TMP DP  RH WIND       PRES   REMARKS
TONOPAH        SUNNY     61  36  39 CALM      30.19S                  
$$

NVZ017-020-022-241700-
SOUTHERN NEVADA
  
CITY           SKY/WX    TMP DP  RH WIND       PRES   REMARKS
LAS VEGAS      SUNNY     76  36  23 E3        30.00S                  
N. LAS VEGAS   SUNNY     76  33  21 NE6       30.00S                  
NELLIS AFB     SUNNY     75  33  21 S5        30.01S                  
HENDERSON      SUNNY     76  37  24 CALM      30.04R                  
MERCURY        SUNNY     75  35  23 N13       30.06R                  
$$